Flag for U.S.A. Weather past 2 weeks in Augusta, Maine, U.S.A.

Now
62 °F

Clear.


Feels Like: 62 °F
Forecast: 62 / 79 °F
Wind: No wind

Location: Augusta State Airport

Current Time: Aug 1, 2015 at 4:10:18 AM

Latest Report: Aug 1, 2015 at 2:53 AM


Visibility: 10 mi

Pressure: 29.73 "Hg

Humidity: 86%

Dew point: 58 °F

Location of AugustaLocation

Historic Weather in Augusta — Graph

°F

Augusta temperature yesterday

Maximum temperature yesterday: 82 °F (at 2:53 PM)
Minimum temperature yesterday: 67 °F (at 11:53 PM)
Average temperature yesterday: 75 °F

Past Weeks' High & Low Weather Summary

 TemperatureHumidityPressure
High86 °F (Jul 20, 4:53 PM)100% (Jul 20, 6:53 AM)30.13 "Hg (Jul 20, 6:53 AM)
Low53 °F (Jul 17, 3:53 AM)37% (Jul 17, 1:53 PM)29.55 "Hg (Jul 21, 5:53 PM)
Average68 °F80%29.86 "Hg
* Reported Jul 17 2:53 AM — Aug 1 2:53 AM, Augusta, Weather by CustomWeather, © 2015

Note: Actual official high and low records may vary slightly from our data, if they occured in-between our weather recording intervals... More about our weather records

Advertising

Augusta weather history for previous 24 hours

 ConditionsComfort  
Time TempWeatherWind HumidityBarometerVisibility
2:53 AM
Sat, Aug 1
62 °FClear.No wind86%29.73 "Hg10 mi
1:53 AM62 °FClear.3 mph86%29.74 "Hg10 mi
12:53 AM66 °FClear.3 mph75%29.76 "Hg10 mi
11:53 PM
Fri, Jul 31
67 °FClear.3 mph79%29.77 "Hg10 mi
10:53 PM69 °FClear.No wind70%29.76 "Hg10 mi
9:53 PM72 °FClear.5 mph59%29.75 "Hg10 mi
8:53 PM74 °FSunny.6 mph56%29.74 "Hg10 mi
7:53 PM76 °FSunny.6 mph52%29.73 "Hg10 mi
6:53 PM79 °FSunny.7 mph47%29.71 "Hg10 mi
5:53 PM80 °FSunny.6 mph44%29.70 "Hg10 mi
4:53 PM81 °FSunny.12 mph41%29.70 "Hg10 mi
3:53 PM82 °FSunny.10 mph38%29.70 "Hg10 mi
2:53 PM82 °FSunny.10 mph40%29.70 "Hg10 mi
1:53 PM81 °FPassing clouds.10 mph44%29.70 "Hg10 mi
12:53 PM80 °FSunny.5 mph45%29.71 "Hg10 mi
11:53 AM79 °FSunny.7 mph48%29.72 "Hg10 mi
10:53 AM78 °FPassing clouds.9 mph54%29.73 "Hg10 mi
9:53 AM76 °FSunny.6 mph62%29.73 "Hg10 mi
8:53 AM74 °FSunny.6 mph64%29.74 "Hg10 mi
7:53 AM72 °FSunny.9 mph71%29.74 "Hg10 mi
6:53 AM70 °FSunny.5 mph79%29.73 "Hg10 mi
5:53 AM68 °FClear.3 mph87%29.72 "Hg10 mi
4:53 AM69 °FClear.3 mph87%29.71 "Hg10 mi
Weather by CustomWeather, © 2015

See weather overviewHow to use our weather pages